Location: Asheville, NC
(35.6000°N, 82.5500°W)
Time: 01:01:55
(UTC-04:00)

Hubble Space Telescope - Pass Details

Date: 15 December 2017
Orbit: 537 x 541 km, 28.5° (Epoch: 23 June)

Event Time Altitude Azimuth Distance (km) Brightness Sun altitude
Rises 18:31:20 0° 259° (W) 2,675 6.2 -14.4°
Reaches altitude 10° 18:33:53 10° 246° (WSW) 1,784 4.8 -14.9°
Maximum altitude 18:37:16 25° 190° (S) 1,117 2.7 -15.6°
Drops below altitude 10° 18:40:39 10° 135° (SE) 1,784 3.2 -16.2°
Enters shadow 18:40:45 10° 135° (SE) 1,815 3.2 -16.2°
